Fresno, CA

2:23 AM PDT on May 28, 2017 (GMT -0700)
Fresno Yosemite International

Weather History for KFAT - September, 2012

Change the Weather History Date:

Saturday, September 1, 2012

  Actual Average Record
Temperature  
Mean Temperature 73 °F 79 °F  
Max Temperature 88 °F 95 °F 107 °F (1888)
Min Temperature 58 °F 64 °F 51 °F (1964)
Degree Days  
Heating Degree Days 0    
Month to date heating degree days 0  
Since 1 July heating degree days 0  
Cooling Degree Days 8    
Month to date cooling degree days 8  
Year to date cooling degree days 1974  
Growing Degree Days 22 (Base 50)    
Moisture  
Dew Point 49 °F    
Average Humidity 50    
Maximum Humidity 77    
Minimum Humidity 22    
Precipitation  
Precipitation 0.00 in 0.00 in 0.32 in (2000)
Month to date precipitation 0.00 0.00  
Year to date precipitation 6.58 7.86  
Since 1 July precipitation T  
Snow  
Snow 0.00 in - - ()
Month to date snowfall 0.0  
Since 1 July snowfall 0.0  
Since 1 September snowfall 0.0  
Snow Depth 0.00 in    
Sea Level Pressure  
Sea Level Pressure 29.94 in    
Wind  
Wind Speed 6 mph (NW)    
Max Wind Speed 16 mph    
Max Gust Speed 18 mph    
Visibility 10 miles    
Events      
T = Trace of Precipitation, MM = Missing Value Source: NWS Daily Summary

Daily Weather History Graph

Daily Weather History Graph

Search for Another Location

Airport or City:

Trip Planner

Search our weather history database for the weather conditions in past years. The results will help you decide how hot, cold, wet, or windy it might be!

Date:

Astronomy

Sep. 01, 2012 Rise Set
Actual Time 6:30 AM PDT 7:26 PM PDT
Civil Twilight 6:03 AM PDT 7:52 PM PDT
Nautical Twilight 5:32 AM PDT 8:24 PM PDT
Astronomical Twilight 5:00 AM PDT 8:56 PM PDT
Moon 7:49 PM PDT (9/1) 7:39 AM PDT (9/1)
Length of Visible Light 13h 48m
Length of Day
12h 55m
Full, 98% of the Moon is Illuminated
Sep 1
Full
Sep 8
Last Quarter
Sep 15
New
Sep 22
First Quarter
Sep 29
Full

Hourly Weather History & Observations

Time (PDT) Temp. Dew Point Humidity Pressure Visibility Wind Dir Wind Speed Gust Speed Precip Events Conditions
12:53 AM 66.0 °F 52.0 °F 60% 29.90 in 10.0 mi NW 12.7 mph - N/A   Scattered Clouds
1:53 AM 63.0 °F 51.1 °F 65% 29.90 in 10.0 mi NW 15.0 mph - N/A   Partly Cloudy
2:53 AM 61.0 °F 50.0 °F 67% 29.91 in 10.0 mi NW 15.0 mph - N/A   Partly Cloudy
3:53 AM 60.1 °F 50.0 °F 69% 29.91 in 10.0 mi WNW 4.6 mph - N/A   Partly Cloudy
4:53 AM 57.9 °F 50.0 °F 75% 29.91 in 10.0 mi WNW 8.1 mph - N/A   Partly Cloudy
5:53 AM 59.0 °F 50.0 °F 72% 29.94 in 10.0 mi Calm Calm - N/A   Partly Cloudy
6:53 AM 59.0 °F 50.0 °F 72% 29.96 in 10.0 mi Calm Calm - N/A   Clear
7:53 AM 61.0 °F 48.9 °F 64% 29.98 in 10.0 mi WNW 8.1 mph - N/A   Clear
8:53 AM 64.0 °F 48.9 °F 58% 30.00 in 10.0 mi WNW 6.9 mph - N/A   Clear
9:53 AM 66.9 °F 48.9 °F 52% 30.01 in 10.0 mi West 4.6 mph - N/A   Clear
10:53 AM 71.1 °F 50.0 °F 47% 30.01 in 10.0 mi Calm Calm - N/A   Clear
11:53 AM 75.9 °F 50.0 °F 40% 29.99 in 10.0 mi NNW 5.8 mph - N/A   Clear
12:53 PM 80.1 °F 48.0 °F 32% 29.98 in 10.0 mi NNW 4.6 mph - N/A   Clear
1:53 PM 82.9 °F 45.0 °F 26% 29.96 in 10.0 mi NNW 5.8 mph - N/A   Clear
2:53 PM 86.0 °F 44.6 °F 23% 29.95 in 10.0 mi Variable 4.6 mph - N/A   Clear
3:53 PM 87.1 °F 45.0 °F 23% 29.91 in 10.0 mi NW 5.8 mph - N/A   Partly Cloudy
4:53 PM 88.0 °F 46.0 °F 23% 29.90 in 10.0 mi WNW 5.8 mph - N/A   Partly Cloudy
5:53 PM 86.0 °F 45.0 °F 24% 29.90 in 10.0 mi WNW 8.1 mph - N/A   Partly Cloudy
6:53 PM 84.0 °F 46.9 °F 27% 29.90 in 10.0 mi NW 11.5 mph - N/A   Clear
7:53 PM 80.1 °F 48.0 °F 32% 29.91 in 10.0 mi WNW 9.2 mph - N/A   Clear
8:53 PM 75.0 °F 50.0 °F 41% 29.92 in 10.0 mi WNW 8.1 mph - N/A   Clear
9:53 PM 75.9 °F 48.0 °F 37% 29.92 in 10.0 mi NW 8.1 mph - N/A   Clear
10:53 PM 73.9 °F 48.9 °F 41% 29.93 in 10.0 mi NW 9.2 mph - N/A   Clear
11:53 PM 71.1 °F 51.1 °F 49% 29.94 in 10.0 mi NW 9.2 mph - N/A   Clear